Location: Homewood
(41.1836°S, 175.9581°E)
Time: 11:36:29
(UTC+00:00)

Daily predictions for brighter satellites

Satellite Brightness Start Highest point End
(mag) Time Altitude Azimuth Time Altitude Azimuth Time Altitude Azimuth
CENTAUR R/B 4.2 15:12:02 29° SSE 15:12:02 29° SSE 15:15:06 10° SSE
NOSS 3-2 (C) 4.0 15:57:41 78° WSW 15:57:48 78° SW 16:05:47 10° SSE
DELTA 2 R/B (1) 4.3 16:03:36 48° ENE 16:03:36 48° ENE 16:07:35 10° E
CZ-4C R/B 4.3 16:04:07 21° SSW 16:04:07 21° SSW 16:07:57 10° SSE
SL-4 R/B 4.3 16:07:37 23° ESE 16:07:37 23° ESE 16:09:23 10° ESE
Cosmos 1833 Rocket 3.0 16:15:54 38° S 16:17:59 63° ESE 16:23:35 10° NE
Cosmos 1818 4.1 16:20:27 45° S 16:21:45 56° SE 16:27:02 10° NE
Cosmos 1553 Rocket 3.8 16:25:41 44° N 16:27:48 89° E 16:34:01 10° S
SL-16 R/B 2.6 16:27:49 10° S 16:33:31 56° SW 16:33:31 56° SW
NOAA 12 4.2 16:29:36 10° NNE 16:34:50 73° ESE 16:40:10 10° S
Cosmos 1633 Rocket 4.1 16:36:54 36° S 16:36:54 36° S 16:39:38 10° S
Nadezhda 2 Rocket 4.3 16:33:28 10° SSW 16:39:46 71° W 16:45:54 10° N
NOSS 3-3 (A) 4.5 16:41:42 35° NNW 16:41:42 35° NNW 16:45:01 10° N
BREEZE M DEB (TANK) 3.3 16:42:06 38° SSE 16:42:06 38° SSE 16:46:05 10° ESE
ARGOS 3.0 16:37:22 10° N 16:42:46 78° WNW 16:48:14 10° SSW
Cosmos 2082 Rocket 3.9 16:38:08 10° S 16:43:08 31° ESE 16:48:06 10° ENE
SL-08 RB Rocket 3.7 16:39:53 10° NNE 16:44:25 79° ESE 16:48:58 10° S
Cosmos 1867 4.3 16:41:43 17° N 16:45:36 50° ENE 16:50:49 10° SE
BREEZE-M DEB (TANK) 3.5 16:46:40 40° NE 16:46:40 40° NE 16:49:19 10° NE
Cosmos 2278 Rocket 2.3 16:43:45 26° NNW 16:47:04 78° ENE 16:52:48 10° SSE
NOSS 3-3 (C) 4.3 16:50:43 36° NNW 16:50:43 36° NNW 16:54:20 10° N
Cosmos 1607 4.2 16:44:07 14° SSW 16:49:24 65° SE 16:55:34 10° NE
SeaSat 1 3.2 16:46:12 10° NE 16:50:58 52° ESE 16:55:48 10° SSW
Cosmos 1356 Rocket 3.6 16:47:02 10° S 16:51:16 71° E 16:55:22 10° NNE
Okean 1-7 3.4 16:47:35 10° S 16:51:55 62° E 16:56:08 10° NNE
Milstar 3 Cent rocket 4.4 16:46:23 20° NW 16:52:23 32° N 16:58:29 10° ENE
Cosmos 2251 Rocket 3.6 16:48:35 10° SSW 16:54:00 78° ESE 16:59:20 10° NNE
USA 238 DEB 4.0 16:52:58 38° WNW 16:55:58 59° SW 17:03:18 10° SSE
USA 238 4.0 16:53:01 38° WNW 16:56:03 60° SW 17:03:24 10° SSE
Hubble Space Telescope 3.2 16:57:55 12° N 16:58:28 12° N 17:00:03 10° NNE
Cosmos 2084 Rocket 3.3 16:59:03 62° NW 16:59:44 85° SW 17:04:11 10° SE
CENTAUR R/B 4.3 16:59:12 18° SW 17:00:03 18° SSW 17:04:29 10° S
Cosmos 1703 Rocket 4.3 16:57:44 10° S 17:02:08 53° E 17:06:26 10° NNE
ARIANE 5 R/B 2.8 16:57:21 10° N 17:06:45 12° SSW 17:07:10 10° SSW
Cosmos 2056 Rocket 4.0 16:59:58 10° N 17:05:15 62° ENE 17:10:31 10° SSE
Okean 3 3.5 17:07:57 46° WSW 17:08:40 52° W 17:12:48 10° N
Cosmos 1140 Rocket 3.6 17:08:18 32° SW 17:10:11 47° WNW 17:15:06 10° N
FengYun 1-2 T 4.5 17:05:23 10° N 17:10:36 44° W 17:15:55 10° SSW
GEOS 3 Rocket 4.5 17:06:28 10° SE 17:11:36 51° ENE 17:16:46 10° NNW
SJ-12 3.9 17:10:47 10° N 17:14:42 54° W 17:18:40 10° SSW
Cosmos 1624 Rocket 4.1 17:10:57 10° NNW 17:16:08 76° ENE 17:21:26 10° SSE
Cosmos 1745 Rocket 3.9 17:09:48 10° SSW 17:16:09 73° W 17:22:22 10° N
SMAP 4.2 17:11:54 10° NE 17:16:21 45° ESE 17:20:51 10° S
Cosmos 1470 2.9 17:16:08 10° N 17:19:54 72° E 17:23:42 10° SSE
Spot 4 Rocket 3.9 17:14:45 10° NNE 17:19:55 81° WNW 17:25:09 10° SSW
Cosmos 1869 Rocket 4.2 17:19:57 10° N 17:24:12 58° E 17:28:34 10° SSE
Cosmos 1943 Rocket 2.1 17:20:12 10° NNW 17:25:50 90° WSW 17:31:30 10° SSE
Cosmos 1470 Rocket 4.1 17:24:04 25° NW 17:26:02 38° WSW 17:30:16 10° S
EXPRESS MD2 4.4 17:29:28 14° N 17:29:28 14° N 17:30:04 10° N
OAO 3 Rocket 4.0 17:27:39 22° NW 17:30:13 39° N 17:34:36 10° ENE
Cosmos 883 Rocket 4.4 17:28:27 10° NNW 17:34:39 71° W 17:41:01 10° S
Cosmos 407 Rocket 3.9 17:30:38 10° SSW 17:35:31 41° WNW 17:40:25 10° N
Okean 2 3.6 17:32:09 10° SSW 17:36:07 46° W 17:40:03 10° NNW
CZ-2D R/B 4.4 17:36:07 10° NNW 17:39:51 27° W 17:43:38 10° SW
Meteor 1-4 Rocket 2.6 17:37:22 10° S 17:40:36 66° E 17:43:47 10° NNE
S3M 4.3 17:37:19 10° NNW 17:43:23 45° WSW 17:49:35 10° S
SL-4 R/B 2.8 17:42:29 22° WSW 17:44:27 36° SSW 17:48:23 10° SE
Cosmos 1908 3.0 17:41:45 10° N 17:45:23 86° WSW 17:49:04 10° S
Cosmos 1766 4.3 17:45:50 21° W 17:46:39 22° WSW 17:49:44 10° SSW
Cosmos 1371 Rocket 4.1 17:41:44 10° NW 17:47:01 56° WSW 17:52:21 10° SSE
CZ-2D R/B 3.7 17:43:51 10° NNW 17:47:17 36° W 17:50:46 10° SSW
DELTA 2 R/B (1) 4.0 17:44:21 18° W 17:48:13 50° NNW 17:53:34 10° NE
Cosmos 1408 4.4 17:46:14 10° SSE 17:49:08 30° ESE 17:51:59 10° NE
Cosmos 1933 Rocket 4.1 17:48:55 10° NW 17:52:58 37° WSW 17:57:05 10° S
Helios 1B rocket 2.6 17:51:33 10° NNE 17:55:28 72° ESE 17:59:27 10° S
APEX 2.3 17:54:35 10° SSW 17:57:26 71° WNW 18:00:28 10° NNE
COSMOS 2406 3.2 17:52:04 10° SSW 17:57:49 83° WNW 18:03:31 10° NNE
AQUARIUS 4.2 17:53:43 10° NNE 17:58:13 89° ESE 18:02:46 10° SSW
Cosmos 1733 Rocket 4.2 17:55:01 10° NNE 17:59:11 49° E 18:03:27 10° SSE
Cosmos 1833 Rocket 4.0 17:57:44 11° WSW 18:01:18 18° W 18:05:00 10° NW
Cosmos 2369 Rocket 4.0 17:57:06 10° N 18:02:11 36° ENE 18:07:21 10° SE
Meteor 2-20 4.5 18:03:50 10° NNW 18:10:00 76° W 18:16:17 10° S
Cosmos 1300 3.7 18:07:27 10° N 18:10:58 49° E 18:14:32 10° SSE
CZ-2C R/B 2.9 18:18:49 10° N 18:22:15 44° W 18:25:42 10° SSW
Cosmos 1656 Rocket 4.0 18:18:59 10° NNW 18:24:30 74° ENE 18:30:10 10° SSE
Cosmos 2082 Rocket 2.7 18:22:01 10° SW 18:27:16 39° WNW 18:32:28 10° N
